OCN74 EDDF-CYHZ

Flight info

Callsign OCN74
Flight time N/A
Altitude 39000
Route SOBRA1F SOBRA Y180 DIK UN857 TOLVU DCT RAPOR DCT GIMER/N0467F350 DCT ESTOC UT300 PON/N0473F390 UT300 ELCOB/N0471F380 UT300 SENLO UN502 JSY DCT LIZAD/N0471F400 DCT GAPLI DCT LIMRI/M082F390 DCT 53N020W 53N030W 53N040W 52N050W DCT TUDEP/N0472F400 DCT LOPRO DCT CAYLY CABOT5
Aircraft A333/H-SDE3GHIJ2J3J5M1RVWXY/LB2D1

Departure

Time N/A
Airport Frankfurt Main Airport (EDDF)

Arrival

Time 2026-05-05 23:24
Airport Halifax / Stanfield International Airport (CYHZ)
Time Latitude Longitude Altitude Speed Heading
2026-05-05 20:59 52.92270 -41.25682 40073 ft 472 kts 261°
2026-05-05 21:00 52.91540 -41.36511 40071 ft 472 kts 261°
2026-05-05 21:00 52.90802 -41.47314 40079 ft 472 kts 261°
2026-05-05 21:01 52.90058 -41.58043 40062 ft 471 kts 261°
2026-05-05 21:01 52.89298 -41.68869 40058 ft 472 kts 261°
2026-05-05 21:02 52.88529 -41.79673 40053 ft 472 kts 261°
2026-05-05 21:02 52.87756 -41.90402 40053 ft 472 kts 261°
2026-05-05 21:03 52.86966 -42.01222 40048 ft 472 kts 261°
2026-05-05 21:03 52.86173 -42.11942 40043 ft 471 kts 261°
2026-05-05 21:04 52.85368 -42.22693 40042 ft 470 kts 261°
2026-05-05 21:04 52.84554 -42.33439 40040 ft 470 kts 260°
2026-05-05 21:05 52.83729 -42.44187 40034 ft 471 kts 261°
2026-05-05 21:05 52.82896 -42.54911 40030 ft 471 kts 260°
2026-05-05 21:06 52.82051 -42.65663 40037 ft 471 kts 260°
2026-05-05 21:06 52.81199 -42.76379 40018 ft 469 kts 261°
2026-05-05 21:07 52.80344 -42.87004 40018 ft 469 kts 260°
2026-05-05 21:07 52.79473 -42.97705 40022 ft 469 kts 260°
2026-05-05 21:08 52.78592 -43.08397 40015 ft 469 kts 260°
2026-05-05 21:08 52.77707 -43.19035 40019 ft 469 kts 260°
2026-05-05 21:09 52.76805 -43.29740 40020 ft 468 kts 260°
2026-05-05 21:09 52.75903 -43.40348 40014 ft 469 kts 260°
2026-05-05 21:10 52.74977 -43.51092 40003 ft 477 kts 260°
2026-05-05 21:10 52.74026 -43.62016 40003 ft 481 kts 260°
2026-05-05 21:11 52.73072 -43.72875 40000 ft 480 kts 260°
2026-05-05 21:11 52.72102 -43.83798 39993 ft 480 kts 259°
2026-05-05 21:12 52.71290 -43.92848 39990 ft 479 kts 260°
2026-05-05 21:12 52.70304 -44.03717 39991 ft 478 kts 259°
2026-05-05 21:13 52.69147 -44.16334 39992 ft 479 kts 259°
2026-05-05 21:13 52.68311 -44.25369 39981 ft 479 kts 260°
2026-05-05 21:14 52.67295 -44.36259 39978 ft 480 kts 259°
2026-05-05 21:14 52.66265 -44.47136 39981 ft 479 kts 259°
2026-05-05 21:15 52.65237 -44.57904 39968 ft 478 kts 259°
2026-05-05 21:15 52.64193 -44.68725 39968 ft 478 kts 259°
2026-05-05 21:16 52.63140 -44.79545 39974 ft 478 kts 259°
2026-05-05 21:16 52.62083 -44.90296 39960 ft 478 kts 259°
2026-05-05 21:17 52.61008 -45.01126 39963 ft 478 kts 259°
2026-05-05 21:17 52.59932 -45.11868 39959 ft 478 kts 259°
2026-05-05 21:18 52.58837 -45.22686 39957 ft 477 kts 259°
2026-05-05 21:18 52.57740 -45.33430 39952 ft 478 kts 259°
2026-05-05 21:19 52.56627 -45.44222 39950 ft 478 kts 259°
2026-05-05 21:19 52.55511 -45.54949 39951 ft 478 kts 259°
2026-05-05 21:20 52.54380 -45.65719 39948 ft 477 kts 259°
2026-05-05 21:20 52.53241 -45.76466 39950 ft 477 kts 259°
2026-05-05 21:21 52.52092 -45.87210 39946 ft 477 kts 259°
2026-05-05 21:21 52.50941 -45.97884 39933 ft 477 kts 258°
2026-05-05 21:22 52.49771 -46.08631 39928 ft 477 kts 258°
2026-05-05 21:22 52.48596 -46.19336 39947 ft 476 kts 259°
2026-05-05 21:23 52.47416 -46.29980 39926 ft 476 kts 258°
2026-05-05 21:23 52.46220 -46.40688 39935 ft 476 kts 258°
2026-05-05 21:24 52.45021 -46.51329 39937 ft 476 kts 258°
2026-05-05 21:24 52.43807 -46.62008 39920 ft 476 kts 258°
2026-05-05 21:25 52.42584 -46.72681 39907 ft 476 kts 258°
2026-05-05 21:25 52.41356 -46.83301 39919 ft 476 kts 258°
2026-05-05 21:26 52.40115 -46.93953 39915 ft 475 kts 258°
2026-05-05 21:26 52.38865 -47.04593 39906 ft 475 kts 258°
2026-05-05 21:27 52.37604 -47.15231 39900 ft 476 kts 258°
2026-05-05 21:27 52.36342 -47.25798 39894 ft 475 kts 258°
2026-05-05 21:28 52.35065 -47.36411 39892 ft 475 kts 258°
2026-05-05 21:28 52.33778 -47.47010 39888 ft 474 kts 258°
2026-05-05 21:29 52.32489 -47.57550 39901 ft 474 kts 258°
2026-05-05 21:29 52.31182 -47.68149 39895 ft 474 kts 258°
2026-05-05 21:30 52.29867 -47.78734 39883 ft 475 kts 258°
2026-05-05 21:30 52.28550 -47.89249 39882 ft 474 kts 258°
2026-05-05 21:31 52.27218 -47.99806 39890 ft 473 kts 258°
2026-05-05 21:31 52.25877 -48.10352 39871 ft 473 kts 258°
2026-05-05 21:32 52.24534 -48.20832 39866 ft 474 kts 257°
2026-05-05 21:32 52.23183 -48.31306 39867 ft 473 kts 257°
2026-05-05 21:33 52.21816 -48.41815 39868 ft 473 kts 257°
2026-05-05 21:33 52.20441 -48.52305 39864 ft 473 kts 257°
2026-05-05 21:34 52.19058 -48.62786 39869 ft 473 kts 257°
2026-05-05 21:34 52.17665 -48.73264 39861 ft 473 kts 257°
2026-05-05 21:35 52.16269 -48.83692 39850 ft 473 kts 257°
2026-05-05 21:35 52.14854 -48.94179 39853 ft 473 kts 257°
2026-05-05 21:36 52.13440 -49.04586 39856 ft 473 kts 257°
2026-05-05 21:36 52.12010 -49.15036 39847 ft 472 kts 257°
2026-05-05 21:37 52.10572 -49.25475 39843 ft 472 kts 257°
2026-05-05 21:37 52.09123 -49.35916 39851 ft 472 kts 257°
2026-05-05 21:38 52.07673 -49.46287 39842 ft 472 kts 257°
2026-05-05 21:38 52.06207 -49.56712 39837 ft 473 kts 257°
2026-05-05 21:39 52.04737 -49.67084 39842 ft 473 kts 257°
2026-05-05 21:39 52.03253 -49.77485 39837 ft 473 kts 257°
2026-05-05 21:40 52.01755 -49.87918 39837 ft 473 kts 257°
2026-05-05 21:40 52.00210 -49.98325 39841 ft 473 kts 253°
2026-05-05 21:41 51.98021 -50.08348 39841 ft 473 kts 250°
2026-05-05 21:41 51.95634 -50.18332 39830 ft 473 kts 249°
2026-05-05 21:42 51.93224 -50.28199 39832 ft 473 kts 249°
2026-05-05 21:42 51.90792 -50.38148 39844 ft 473 kts 249°
2026-05-05 21:43 51.88381 -50.48006 39831 ft 473 kts 249°
2026-05-05 21:43 51.85944 -50.57943 39830 ft 474 kts 249°
2026-05-05 21:44 51.83517 -50.67795 39831 ft 474 kts 249°
2026-05-05 21:44 51.81066 -50.77699 39833 ft 474 kts 249°
2026-05-05 21:45 51.78620 -50.87537 39835 ft 474 kts 249°
2026-05-05 21:45 51.76150 -50.97429 39836 ft 474 kts 249°
2026-05-05 21:46 51.73677 -51.07288 39821 ft 474 kts 249°
2026-05-05 21:46 51.71207 -51.17090 39843 ft 473 kts 249°
2026-05-05 21:47 51.68717 -51.26929 39831 ft 473 kts 249°
2026-05-05 21:47 51.66220 -51.36754 39827 ft 473 kts 249°
2026-05-05 21:48 51.63733 -51.46497 39832 ft 473 kts 249°
2026-05-05 21:48 51.61219 -51.56299 39823 ft 472 kts 249°
2026-05-05 21:49 51.58705 -51.66057 39829 ft 470 kts 249°
2026-05-05 21:49 51.56196 -51.75755 39832 ft 469 kts 248°
2026-05-05 21:50 51.53694 -51.85388 39835 ft 469 kts 248°
2026-05-05 21:50 51.51167 -51.95073 39832 ft 469 kts 248°
2026-05-05 21:51 51.48638 -52.04728 39836 ft 469 kts 248°
2026-05-05 21:51 51.46116 -52.14311 39837 ft 469 kts 248°
2026-05-05 21:52 51.42295 -52.28758 39831 ft 469 kts 248°
2026-05-05 21:53 51.39752 -52.38322 39835 ft 469 kts 248°
2026-05-05 21:53 51.37186 -52.47934 39828 ft 469 kts 248°
2026-05-05 21:54 51.34601 -52.57574 39838 ft 472 kts 248°
2026-05-05 21:54 51.32012 -52.67190 39839 ft 473 kts 248°
2026-05-05 21:55 51.29398 -52.76859 39838 ft 473 kts 248°
2026-05-05 21:55 51.26772 -52.86526 39837 ft 473 kts 248°
2026-05-05 21:56 51.24158 -52.96116 39838 ft 472 kts 248°
2026-05-05 21:56 51.21528 -53.05719 39840 ft 470 kts 248°
2026-05-05 21:57 51.18920 -53.15209 39840 ft 469 kts 248°
2026-05-05 21:57 51.15912 -53.24473 39840 ft 472 kts 237°
2026-05-05 21:58 51.11961 -53.32884 39829 ft 474 kts 234°
2026-05-05 21:58 51.07859 -53.41012 39845 ft 473 kts 234°
2026-05-05 21:59 51.03713 -53.49123 39844 ft 472 kts 234°
2026-05-05 21:59 51.00271 -53.55877 39851 ft 472 kts 234°
2026-05-05 22:00 50.96166 -53.63942 39851 ft 472 kts 234°
2026-05-05 22:00 50.92038 -53.72044 39856 ft 471 kts 234°
2026-05-05 22:01 50.87915 -53.80108 39858 ft 470 kts 234°
2026-05-05 22:01 50.83814 -53.88106 39856 ft 470 kts 234°
2026-05-05 22:02 50.79677 -53.96146 39855 ft 470 kts 234°
2026-05-05 22:02 50.75555 -54.04130 39855 ft 468 kts 234°
2026-05-05 22:03 50.71437 -54.12085 39857 ft 467 kts 234°
2026-05-05 22:03 50.67339 -54.19978 39857 ft 467 kts 233°
2026-05-05 22:04 50.63207 -54.27910 39853 ft 467 kts 233°
2026-05-05 22:04 50.59095 -54.35781 39858 ft 467 kts 233°
2026-05-05 22:05 50.54965 -54.43661 39862 ft 466 kts 233°
2026-05-05 22:05 50.50831 -54.51526 39862 ft 466 kts 233°
2026-05-05 22:06 50.46697 -54.59368 39867 ft 466 kts 233°
2026-05-05 22:06 50.42552 -54.67206 39867 ft 466 kts 233°
2026-05-05 22:07 50.38399 -54.75035 39867 ft 466 kts 233°
2026-05-05 22:07 50.34260 -54.82813 39873 ft 466 kts 233°
2026-05-05 22:08 50.30090 -54.90629 39867 ft 466 kts 233°
2026-05-05 22:08 50.25924 -54.98411 39865 ft 466 kts 233°
2026-05-05 22:09 50.21791 -55.06109 39868 ft 464 kts 233°
2026-05-05 22:09 50.17641 -55.13816 39867 ft 463 kts 233°
2026-05-05 22:10 50.13483 -55.21516 39864 ft 463 kts 233°
2026-05-05 22:10 50.09324 -55.29195 39864 ft 462 kts 233°
2026-05-05 22:11 50.05206 -55.36773 39868 ft 460 kts 233°
2026-05-05 22:11 50.01064 -55.44376 39870 ft 459 kts 233°
2026-05-05 22:12 49.96943 -55.51918 39873 ft 459 kts 233°
2026-05-05 22:12 49.92799 -55.59481 39871 ft 459 kts 233°
2026-05-05 22:13 49.88652 -55.67025 39873 ft 457 kts 233°
2026-05-05 22:13 49.84542 -55.74481 39876 ft 457 kts 233°
2026-05-05 22:14 49.80401 -55.81975 39878 ft 457 kts 233°
2026-05-05 22:14 49.76255 -55.89453 39867 ft 457 kts 233°
2026-05-05 22:15 49.72126 -55.96881 39871 ft 458 kts 233°
2026-05-05 22:15 49.67969 -56.04337 39871 ft 458 kts 233°
2026-05-05 22:16 49.63800 -56.11795 39876 ft 458 kts 233°
2026-05-05 22:16 49.59647 -56.19202 39872 ft 458 kts 233°
2026-05-05 22:17 49.55457 -56.26653 39876 ft 459 kts 232°
2026-05-05 22:17 49.51286 -56.34046 39879 ft 460 kts 232°
2026-05-05 22:18 49.47083 -56.41476 39873 ft 460 kts 232°
2026-05-05 22:18 49.42877 -56.48891 39864 ft 460 kts 232°
2026-05-05 22:19 49.38663 -56.56302 39884 ft 460 kts 232°
2026-05-05 22:19 49.34473 -56.63649 39882 ft 460 kts 232°
2026-05-05 22:20 49.30234 -56.71059 39872 ft 460 kts 232°
2026-05-05 22:20 49.26027 -56.78393 39871 ft 460 kts 232°
2026-05-05 22:21 49.21798 -56.85744 39877 ft 459 kts 232°
2026-05-05 22:21 49.17572 -56.93068 39876 ft 458 kts 232°
2026-05-05 22:22 49.13369 -57.00334 39877 ft 458 kts 232°
2026-05-05 22:22 49.09144 -57.07618 39871 ft 456 kts 232°
2026-05-05 22:23 49.04932 -57.14857 39878 ft 454 kts 232°
2026-05-05 22:23 49.00745 -57.22035 39876 ft 453 kts 232°
2026-05-05 22:24 48.96567 -57.29180 39878 ft 453 kts 232°
2026-05-05 22:24 48.92363 -57.36352 39889 ft 454 kts 232°
2026-05-05 22:25 48.88141 -57.43533 39890 ft 456 kts 232°
2026-05-05 22:25 48.83923 -57.50685 39896 ft 456 kts 232°
2026-05-05 22:26 48.79676 -57.57866 39901 ft 456 kts 232°
2026-05-05 22:26 48.75460 -57.64977 39898 ft 456 kts 232°
2026-05-05 22:27 48.71173 -57.72106 39900 ft 456 kts 231°
2026-05-05 22:27 48.66795 -57.79089 39911 ft 456 kts 230°
2026-05-05 22:28 48.62438 -57.86012 39910 ft 456 kts 230°
2026-05-05 22:28 48.58060 -57.92957 39913 ft 454 kts 230°
2026-05-05 22:29 48.53696 -57.99863 39914 ft 452 kts 230°
2026-05-05 22:29 48.49373 -58.06688 39923 ft 452 kts 230°
2026-05-05 22:30 48.45021 -58.13544 39926 ft 452 kts 230°
2026-05-05 22:30 48.40693 -58.20339 39925 ft 450 kts 230°
2026-05-05 22:31 48.36356 -58.27132 39933 ft 448 kts 230°
2026-05-05 22:31 48.32033 -58.33886 39939 ft 448 kts 230°
2026-05-05 22:32 48.27706 -58.40631 39941 ft 448 kts 230°
2026-05-05 22:32 48.23398 -58.47327 39941 ft 447 kts 230°
2026-05-05 22:33 48.19069 -58.54038 39957 ft 446 kts 230°
2026-05-05 22:33 48.14754 -58.60709 39937 ft 444 kts 230°
2026-05-05 22:34 48.10491 -58.67285 39948 ft 442 kts 230°
2026-05-05 22:34 48.06199 -58.73887 39953 ft 441 kts 230°
2026-05-05 22:35 48.01919 -58.80456 39955 ft 441 kts 230°
2026-05-05 22:35 47.97657 -58.86979 39959 ft 441 kts 229°
2026-05-05 22:36 47.93387 -58.93500 39957 ft 441 kts 229°
2026-05-05 22:36 47.89093 -59.00038 39963 ft 442 kts 229°
2026-05-05 22:37 47.84782 -59.06588 39965 ft 443 kts 229°
2026-05-05 22:37 47.80460 -59.13137 39967 ft 443 kts 229°
2026-05-05 22:38 47.76136 -59.19671 39967 ft 443 kts 229°
2026-05-05 22:38 47.71832 -59.26161 39961 ft 444 kts 229°
2026-05-05 22:39 47.67471 -59.32719 39962 ft 445 kts 229°
2026-05-05 22:39 47.63126 -59.39236 39957 ft 445 kts 229°
2026-05-05 22:40 47.58759 -59.45770 39953 ft 445 kts 229°
2026-05-05 22:40 47.54416 -59.52252 39952 ft 445 kts 229°
2026-05-05 22:41 47.50039 -59.58767 39936 ft 445 kts 229°
2026-05-05 22:41 47.45688 -59.65229 39936 ft 445 kts 229°
2026-05-05 22:42 47.41313 -59.71710 39923 ft 445 kts 229°
2026-05-05 22:42 47.36931 -59.78184 39932 ft 444 kts 229°
2026-05-05 22:43 47.32581 -59.84597 39930 ft 444 kts 229°
2026-05-05 22:43 47.28204 -59.91033 39933 ft 444 kts 229°
2026-05-05 22:44 47.23846 -59.97425 39928 ft 444 kts 229°
2026-05-05 22:44 47.19453 -60.03853 39936 ft 444 kts 229°
2026-05-05 22:45 47.15076 -60.10241 39933 ft 444 kts 229°
2026-05-05 22:45 47.10707 -60.16602 39933 ft 444 kts 229°
2026-05-05 22:46 47.06311 -60.22987 39936 ft 444 kts 229°
2026-05-05 22:46 47.01903 -60.29338 39935 ft 445 kts 227°
2026-05-05 22:47 46.97590 -60.35630 39930 ft 433 kts 231°
2026-05-05 22:47 46.93691 -60.42304 39928 ft 429 kts 234°
2026-05-05 22:48 46.89869 -60.48955 39919 ft 430 kts 232°
2026-05-05 22:48 46.85860 -60.55468 39796 ft 429 kts 231°
2026-05-05 22:48 46.83849 -60.58689 39377 ft 427 kts 232°
2026-05-05 22:49 46.82524 -60.60807 39144 ft 424 kts 232°
2026-05-05 22:49 46.79905 -60.64992 38668 ft 419 kts 232°
2026-05-05 22:49 46.77944 -60.68124 38171 ft 416 kts 232°
2026-05-05 22:49 46.75993 -60.71241 37565 ft 415 kts 232°
2026-05-05 22:50 46.74696 -60.73312 37045 ft 417 kts 232°
2026-05-05 22:50 46.72725 -60.76453 36263 ft 421 kts 232°
2026-05-05 22:50 46.70741 -60.79611 35541 ft 423 kts 232°
2026-05-05 22:50 46.68743 -60.82786 34842 ft 424 kts 231°
2026-05-05 22:51 46.66765 -60.85925 34152 ft 426 kts 231°
2026-05-05 22:51 46.64751 -60.89118 33370 ft 428 kts 231°
2026-05-05 22:51 46.62727 -60.92323 32780 ft 431 kts 231°
2026-05-05 22:51 46.60681 -60.95560 32237 ft 435 kts 231°
2026-05-05 22:52 46.58646 -60.98774 31712 ft 438 kts 231°
2026-05-05 22:52 46.56577 -61.02039 31194 ft 439 kts 231°
2026-05-05 22:52 46.54502 -61.05308 30668 ft 440 kts 231°
2026-05-05 22:52 46.52422 -61.08582 30192 ft 441 kts 231°
2026-05-05 22:53 46.50329 -61.11873 29635 ft 443 kts 231°
2026-05-05 22:53 46.48234 -61.15162 29068 ft 444 kts 231°
2026-05-05 22:53 46.46151 -61.18428 28504 ft 445 kts 231°
2026-05-05 22:53 46.44045 -61.21728 27959 ft 445 kts 231°
2026-05-05 22:54 46.41940 -61.25018 27423 ft 442 kts 230°
2026-05-05 22:54 46.39860 -61.28267 26910 ft 438 kts 230°
2026-05-05 22:54 46.37815 -61.31457 26405 ft 434 kts 230°
2026-05-05 22:54 46.35774 -61.34638 25905 ft 429 kts 230°
2026-05-05 22:55 46.33749 -61.37789 25428 ft 426 kts 230°
2026-05-05 22:55 46.31736 -61.40921 24930 ft 422 kts 230°
2026-05-05 22:55 46.29743 -61.44017 24472 ft 418 kts 230°
2026-05-05 22:55 46.27760 -61.47094 23987 ft 415 kts 230°
2026-05-05 22:56 46.25819 -61.50102 23531 ft 412 kts 230°
2026-05-05 22:56 46.23868 -61.53123 22992 ft 409 kts 230°
2026-05-05 22:56 46.21928 -61.56124 22448 ft 405 kts 230°
2026-05-05 22:56 46.20010 -61.59087 21938 ft 402 kts 230°
2026-05-05 22:57 46.18106 -61.62024 21409 ft 398 kts 230°
2026-05-05 22:57 46.16217 -61.64936 20898 ft 395 kts 230°
2026-05-05 22:57 46.14367 -61.67786 20416 ft 392 kts 230°
2026-05-05 22:57 46.12504 -61.70651 19916 ft 389 kts 230°
2026-05-05 22:58 46.10647 -61.73504 19420 ft 387 kts 229°
2026-05-05 22:58 46.08807 -61.76329 18949 ft 384 kts 229°
2026-05-05 22:58 46.07003 -61.79094 18483 ft 382 kts 229°
2026-05-05 22:58 46.05185 -61.81879 17973 ft 379 kts 229°
2026-05-05 22:59 46.03385 -61.84633 17448 ft 377 kts 229°
2026-05-05 22:59 46.01594 -61.87371 16937 ft 374 kts 229°
2026-05-05 22:59 45.99814 -61.90089 16512 ft 371 kts 229°
2026-05-05 22:59 45.98066 -61.92756 16190 ft 369 kts 229°
2026-05-05 23:00 45.94543 -61.98124 15673 ft 367 kts 229°
2026-05-05 23:00 45.92791 -62.00788 15428 ft 366 kts 229°
2026-05-05 23:00 45.91040 -62.03448 15182 ft 365 kts 229°
2026-05-05 23:01 45.89296 -62.06097 14936 ft 364 kts 229°
2026-05-05 23:01 45.87551 -62.08743 14687 ft 364 kts 229°
2026-05-05 23:01 45.85807 -62.11384 14441 ft 363 kts 229°
2026-05-05 23:01 45.84076 -62.14005 14225 ft 362 kts 229°
2026-05-05 23:02 45.82364 -62.16594 13988 ft 361 kts 229°
2026-05-05 23:02 45.80635 -62.19206 13744 ft 360 kts 229°
2026-05-05 23:02 45.78912 -62.21805 13462 ft 359 kts 229°
2026-05-05 23:02 45.77190 -62.24402 13208 ft 358 kts 229°
2026-05-05 23:03 45.75475 -62.26985 12899 ft 356 kts 229°
2026-05-05 23:03 45.73788 -62.29523 12512 ft 355 kts 229°
2026-05-05 23:03 45.72089 -62.32078 12131 ft 353 kts 229°
2026-05-05 23:03 45.70393 -62.34625 11759 ft 350 kts 229°
2026-05-05 23:04 45.68742 -62.37099 11393 ft 336 kts 229°
2026-05-05 23:04 45.67168 -62.39456 11059 ft 319 kts 229°
2026-05-05 23:04 45.65658 -62.41717 10697 ft 309 kts 229°
2026-05-05 23:04 45.64211 -62.43883 10355 ft 300 kts 229°
2026-05-05 23:05 45.62786 -62.46015 10004 ft 292 kts 228°
2026-05-05 23:05 45.61398 -62.48091 9629 ft 285 kts 228°
2026-05-05 23:05 45.60040 -62.50120 9242 ft 279 kts 228°
2026-05-05 23:05 45.58709 -62.52107 8856 ft 273 kts 228°
2026-05-05 23:06 45.57407 -62.54051 8470 ft 268 kts 228°
2026-05-05 23:06 45.56129 -62.55955 8096 ft 263 kts 228°
2026-05-05 23:06 45.54870 -62.57831 7726 ft 259 kts 228°
2026-05-05 23:06 45.53649 -62.59647 7369 ft 255 kts 228°
2026-05-05 23:07 45.52432 -62.61457 6992 ft 251 kts 228°
2026-05-05 23:07 45.51231 -62.63243 6657 ft 247 kts 228°
2026-05-05 23:07 45.50056 -62.64989 6377 ft 241 kts 228°
2026-05-05 23:07 45.48913 -62.66684 6207 ft 233 kts 228°
2026-05-05 23:08 45.47793 -62.68352 6061 ft 232 kts 228°
2026-05-05 23:08 45.46674 -62.70013 5953 ft 232 kts 227°
2026-05-05 23:08 45.45569 -62.71649 5832 ft 232 kts 227°
2026-05-05 23:08 45.44453 -62.73301 5701 ft 231 kts 227°
2026-05-05 23:09 45.43337 -62.74950 5586 ft 230 kts 227°
2026-05-05 23:09 45.42226 -62.76593 5456 ft 230 kts 227°
2026-05-05 23:09 45.41114 -62.78237 5331 ft 230 kts 227°
2026-05-05 23:09 45.40017 -62.79856 5202 ft 229 kts 227°
2026-05-05 23:10 45.38912 -62.81489 5092 ft 229 kts 227°
2026-05-05 23:10 45.37809 -62.83115 4954 ft 228 kts 226°
2026-05-05 23:10 45.36711 -62.84736 4828 ft 227 kts 226°
2026-05-05 23:10 45.35618 -62.86347 4703 ft 225 kts 227°
2026-05-05 23:11 45.34531 -62.87945 4571 ft 224 kts 226°
2026-05-05 23:11 45.33447 -62.89540 4453 ft 224 kts 226°
2026-05-05 23:11 45.32367 -62.91128 4312 ft 223 kts 226°
2026-05-05 23:11 45.31290 -62.92710 4195 ft 221 kts 226°
2026-05-05 23:12 45.30235 -62.94260 4074 ft 220 kts 226°
2026-05-05 23:12 45.29168 -62.95828 3952 ft 220 kts 226°
2026-05-05 23:12 45.28107 -62.97385 3820 ft 218 kts 226°
2026-05-05 23:12 45.27055 -62.98929 3709 ft 217 kts 226°
2026-05-05 23:13 45.26004 -63.00471 3574 ft 217 kts 226°
2026-05-05 23:13 45.24953 -63.02007 3454 ft 217 kts 226°
2026-05-05 23:13 45.23904 -63.03542 3340 ft 216 kts 226°
2026-05-05 23:13 45.22862 -63.05067 3206 ft 215 kts 226°
2026-05-05 23:14 45.21833 -63.06573 3094 ft 214 kts 226°
2026-05-05 23:14 45.20797 -63.08088 2957 ft 213 kts 226°
2026-05-05 23:14 45.19769 -63.09590 2840 ft 212 kts 226°
2026-05-05 23:14 45.18744 -63.11086 2728 ft 210 kts 226°
2026-05-05 23:15 45.17730 -63.12566 2594 ft 209 kts 227°
2026-05-05 23:15 45.16717 -63.14044 2474 ft 209 kts 226°
2026-05-05 23:15 45.15705 -63.15522 2339 ft 208 kts 226°
2026-05-05 23:15 45.14713 -63.16980 2217 ft 208 kts 226°
2026-05-05 23:16 45.13706 -63.18442 2124 ft 206 kts 226°
2026-05-05 23:16 45.12694 -63.19881 2101 ft 206 kts 226°
2026-05-05 23:16 45.11673 -63.21327 2092 ft 207 kts 226°
2026-05-05 23:16 45.10652 -63.22776 2105 ft 208 kts 225°
2026-05-05 23:17 45.09641 -63.24241 2096 ft 207 kts 226°
2026-05-05 23:17 45.08655 -63.25686 2097 ft 205 kts 226°
2026-05-05 23:17 45.07685 -63.27107 2110 ft 197 kts 226°
2026-05-05 23:17 45.06732 -63.28508 2111 ft 196 kts 226°
2026-05-05 23:18 45.05786 -63.29887 2101 ft 198 kts 226°
2026-05-05 23:18 45.04828 -63.31286 2102 ft 197 kts 226°
2026-05-05 23:18 45.03848 -63.32639 2097 ft 196 kts 224°
2026-05-05 23:18 45.02853 -63.33958 2106 ft 196 kts 224°
2026-05-05 23:19 45.01861 -63.35258 2107 ft 196 kts 224°
2026-05-05 23:19 45.00856 -63.36565 2098 ft 196 kts 224°
2026-05-05 23:19 44.99874 -63.37827 2104 ft 184 kts 224°
2026-05-05 23:19 44.98924 -63.38933 2118 ft 174 kts 217°
2026-05-05 23:20 44.97909 -63.39822 2121 ft 165 kts 218°
2026-05-05 23:20 44.97000 -63.40712 2027 ft 155 kts 221°
2026-05-05 23:20 44.96183 -63.41670 1968 ft 146 kts 223°
2026-05-05 23:20 44.95450 -63.42560 1935 ft 134 kts 223°
2026-05-05 23:21 44.94762 -63.43413 1873 ft 127 kts 223°
2026-05-05 23:21 44.94167 -63.44218 1824 ft 110 kts 232°
2026-05-05 23:21 44.93761 -63.45096 1761 ft 110 kts 234°
2026-05-05 23:21 44.93280 -63.45945 1659 ft 112 kts 224°
2026-05-05 23:22 44.92660 -63.46621 1417 ft 110 kts 218°
2026-05-05 23:22 44.92037 -63.47233 1278 ft 109 kts 218°
2026-05-05 23:22 44.91398 -63.47890 1143 ft 120 kts 218°
2026-05-05 23:22 44.90702 -63.48620 1008 ft 129 kts 216°
2026-05-05 23:23 44.89945 -63.49371 810 ft 135 kts 215°
2026-05-05 23:23 44.89213 -63.50107 616 ft 122 kts 213°
2026-05-05 23:23 44.88542 -63.50767 460 ft 111 kts 213°
2026-05-05 23:23 44.88023 -63.51287 453 ft 67 kts 215°
2026-05-05 23:24 44.87698 -63.51609 455 ft 48 kts 214°
2026-05-05 23:24 44.87486 -63.51831 452 ft 31 kts 232°
2026-05-05 23:24 44.87445 -63.51972 454 ft 8 kts 264°
2026-05-05 23:24 44.87455 -63.52040 455 ft 7 kts 289°
2026-05-05 23:25 44.87478 -63.52103 455 ft 8 kts 310°
2026-05-05 23:25 44.87524 -63.52103 456 ft 8 kts 27°
2026-05-05 23:25 44.87576 -63.52059 456 ft 10 kts 31°
2026-05-05 23:25 44.87636 -63.51998 456 ft 11 kts 36°
2026-05-05 23:26 44.87707 -63.51926 456 ft 14 kts 36°
2026-05-05 23:26 44.87793 -63.51840 456 ft 16 kts 36°
2026-05-05 23:26 44.87893 -63.51739 456 ft 19 kts 34°
2026-05-05 23:26 44.88009 -63.51631 456 ft 21 kts 33°
2026-05-05 23:27 44.88133 -63.51508 455 ft 23 kts 36°
2026-05-05 23:27 44.88269 -63.51372 455 ft 24 kts 36°
2026-05-05 23:27 44.88391 -63.51241 455 ft 22 kts 40°
2026-05-05 23:27 44.88537 -63.51222 455 ft 22 kts 350°
2026-05-05 23:28 44.88697 -63.51262 455 ft 24 kts 350°
2026-05-05 23:28 44.88869 -63.51305 455 ft 19 kts 350°
2026-05-05 23:28 44.88926 -63.51350 455 ft 7 kts 308°
2026-05-05 23:28 44.88944 -63.51398 455 ft 5 kts 281°
2026-05-05 23:29 44.88937 -63.51428 455 ft 3 kts 245°
2026-05-05 23:29 44.88918 -63.51454 455 ft 4 kts 220°
2026-05-05 23:29 44.88894 -63.51480 455 ft 3 kts 215°
2026-05-05 23:29 44.88893 -63.51481 455 ft 0 kts 215°